Year,Month,Day,Hour,Minute,Value (Times are PST for windgust in km/hr)
2010,11,15,00,22,1.60
2010,11,15,00,23,3.20
2010,11,15,00,24,3.20
2010,11,15,00,25,1.60
2010,11,15,00,59,1.60
2010,11,15,01,00,1.60
2010,11,15,01,18,1.60
2010,11,15,01,19,1.60
2010,11,15,01,21,3.20
2010,11,15,01,22,1.60
2010,11,15,02,07,1.60
2010,11,15,02,08,1.60
2010,11,15,02,09,1.60
2010,11,15,02,10,3.20
2010,11,15,02,11,1.60
2010,11,15,02,12,1.60
2010,11,15,02,19,1.60
2010,11,15,02,20,1.60
2010,11,15,02,25,1.60
2010,11,15,02,34,3.20
2010,11,15,02,35,3.20
2010,11,15,02,51,1.60
2010,11,15,03,36,1.60
2010,11,15,03,37,3.20
2010,11,15,03,38,3.20
2010,11,15,03,39,1.60
2010,11,15,03,40,1.60
2010,11,15,03,41,3.20
2010,11,15,03,42,1.60
2010,11,15,03,43,1.60
2010,11,15,03,44,1.60
2010,11,15,03,45,1.60
2010,11,15,04,01,1.60
2010,11,15,04,02,1.60
2010,11,15,04,03,1.60
2010,11,15,04,32,1.60
2010,11,15,04,33,1.60
2010,11,15,04,34,1.60
2010,11,15,04,35,1.60
2010,11,15,04,36,1.60
2010,11,15,04,38,1.60
2010,11,15,04,39,1.60
2010,11,15,04,41,3.20
2010,11,15,04,42,3.20
2010,11,15,04,43,4.80
2010,11,15,04,44,4.80
2010,11,15,04,45,3.20
2010,11,15,04,46,3.20
2010,11,15,04,47,1.60
2010,11,15,04,48,3.20
2010,11,15,04,49,1.60
2010,11,15,05,39,1.60
2010,11,15,05,41,1.60
2010,11,15,05,56,3.20
2010,11,15,05,57,3.20
2010,11,15,05,58,1.60
2010,11,15,06,07,3.20
2010,11,15,06,08,3.20
2010,11,15,06,50,3.20
2010,11,15,06,51,3.20
2010,11,15,06,52,3.20
2010,11,15,06,53,1.60
2010,11,15,06,57,3.20
2010,11,15,06,58,1.60
2010,11,15,06,59,1.60
2010,11,15,07,45,1.60
2010,11,15,07,46,3.20
2010,11,15,07,47,3.20
2010,11,15,07,48,3.20
2010,11,15,07,49,1.60
2010,11,15,07,50,3.20
2010,11,15,07,51,4.80
2010,11,15,07,52,4.80
2010,11,15,07,53,4.80
2010,11,15,07,54,3.20
2010,11,15,07,55,1.60
2010,11,15,07,56,3.20
2010,11,15,07,57,1.60
2010,11,15,07,59,1.60
2010,11,15,08,02,1.60
2010,11,15,08,03,1.60
2010,11,15,08,04,1.60
2010,11,15,08,05,1.60
2010,11,15,08,08,1.60
2010,11,15,08,09,1.60
2010,11,15,08,10,1.60
2010,11,15,08,11,1.60
2010,11,15,08,28,1.60
2010,11,15,08,29,3.20
2010,11,15,08,30,4.80
2010,11,15,08,31,6.40
2010,11,15,08,32,4.80
2010,11,15,08,33,3.20
2010,11,15,08,34,1.60
2010,11,15,08,35,1.60
2010,11,15,08,36,1.60
2010,11,15,08,38,1.60
2010,11,15,08,51,1.60
2010,11,15,08,52,3.20
2010,11,15,08,53,1.60
2010,11,15,08,54,1.60
2010,11,15,09,08,3.20
2010,11,15,09,09,3.20
2010,11,15,09,10,3.20
2010,11,15,09,11,3.20
2010,11,15,09,12,3.20
2010,11,15,09,13,3.20
2010,11,15,09,14,1.60
2010,11,15,09,15,1.60
2010,11,15,09,16,1.60
2010,11,15,09,17,3.20
2010,11,15,09,18,3.20
2010,11,15,09,19,3.20
2010,11,15,09,20,4.80
2010,11,15,09,21,3.20
2010,11,15,09,22,3.20
2010,11,15,09,23,4.80
2010,11,15,09,24,4.80
2010,11,15,09,25,3.20
2010,11,15,09,26,3.20
2010,11,15,09,27,1.60
2010,11,15,09,28,3.20
2010,11,15,09,29,3.20
2010,11,15,09,30,3.20
2010,11,15,09,31,1.60
2010,11,15,09,32,1.60
2010,11,15,09,33,1.60
2010,11,15,09,36,1.60
2010,11,15,09,37,3.20
2010,11,15,09,38,3.20
2010,11,15,09,39,3.20
2010,11,15,09,40,3.20
2010,11,15,09,41,3.20
2010,11,15,09,42,3.20
2010,11,15,09,43,4.80
2010,11,15,09,44,4.80
2010,11,15,09,45,3.20
2010,11,15,09,46,3.20
2010,11,15,09,47,1.60
2010,11,15,09,48,3.20
2010,11,15,09,49,1.60
2010,11,15,09,50,4.80
2010,11,15,09,51,4.80
2010,11,15,09,52,4.80
2010,11,15,09,53,3.20
2010,11,15,09,54,3.20
2010,11,15,09,55,1.60
2010,11,15,09,56,1.60
2010,11,15,09,57,1.60
2010,11,15,10,01,1.60
2010,11,15,10,02,3.20
2010,11,15,10,03,4.80
2010,11,15,10,04,4.80
2010,11,15,10,05,4.80
2010,11,15,10,06,1.60
2010,11,15,10,07,1.60
2010,11,15,10,12,1.60
2010,11,15,10,13,3.20
2010,11,15,10,14,3.20
2010,11,15,10,15,1.60
2010,11,15,10,16,3.20
2010,11,15,10,17,3.20
2010,11,15,10,18,1.60
2010,11,15,10,27,1.60
2010,11,15,10,28,1.60
2010,11,15,10,29,1.60
2010,11,15,10,30,1.60
2010,11,15,10,31,1.60
2010,11,15,10,32,3.20
2010,11,15,10,33,3.20
2010,11,15,10,34,4.80
2010,11,15,10,35,4.80
2010,11,15,10,36,3.20
2010,11,15,10,37,6.40
2010,11,15,10,38,4.80
2010,11,15,10,39,3.20
2010,11,15,10,40,3.20
2010,11,15,10,41,3.20
2010,11,15,10,42,4.80
2010,11,15,10,43,6.40
2010,11,15,10,44,8.10
2010,11,15,10,45,4.80
2010,11,15,10,46,3.20
2010,11,15,10,47,6.40
2010,11,15,10,48,6.40
2010,11,15,10,49,6.40
2010,11,15,10,50,8.10
2010,11,15,10,51,9.60
2010,11,15,10,52,8.10
2010,11,15,10,53,8.10
2010,11,15,10,54,6.40
2010,11,15,10,55,4.80
2010,11,15,10,56,3.20
2010,11,15,10,57,4.80
2010,11,15,10,58,8.10
2010,11,15,10,59,8.10
2010,11,15,11,00,9.60
2010,11,15,11,01,8.10
2010,11,15,11,02,6.40
2010,11,15,11,03,4.80
2010,11,15,11,04,4.80
2010,11,15,11,05,6.40
2010,11,15,11,06,8.10
2010,11,15,11,07,6.40
2010,11,15,11,08,6.40
2010,11,15,11,09,4.80
2010,11,15,11,10,8.10
2010,11,15,11,11,8.10
2010,11,15,11,12,6.40
2010,11,15,11,13,6.40
2010,11,15,11,14,9.60
2010,11,15,11,15,8.10
2010,11,15,11,16,9.60
2010,11,15,11,17,8.10
2010,11,15,11,18,8.10
2010,11,15,11,19,14.50
2010,11,15,11,20,9.60
2010,11,15,11,21,11.30
2010,11,15,11,22,11.30
2010,11,15,11,23,11.30
2010,11,15,11,24,8.10
2010,11,15,11,25,14.50
2010,11,15,11,26,9.60
2010,11,15,11,27,11.30
2010,11,15,11,28,9.60
2010,11,15,11,29,8.10
2010,11,15,11,30,9.60
2010,11,15,11,31,9.60
2010,11,15,11,32,4.80
2010,11,15,11,33,6.40
2010,11,15,11,34,6.40
2010,11,15,11,35,4.80
2010,11,15,11,36,9.60
2010,11,15,11,37,4.80
2010,11,15,11,38,3.20
2010,11,15,11,39,3.20
2010,11,15,11,40,1.60
2010,11,15,11,41,1.60
2010,11,15,11,42,1.60
2010,11,15,11,43,1.60
2010,11,15,11,44,3.20
2010,11,15,11,45,3.20
2010,11,15,11,46,4.80
2010,11,15,11,47,3.20
2010,11,15,11,48,3.20
2010,11,15,11,49,3.20
2010,11,15,11,50,3.20
2010,11,15,11,51,3.20
2010,11,15,11,52,1.60
2010,11,15,11,53,1.60
2010,11,15,11,54,3.20
2010,11,15,11,59,8.10
2010,11,15,12,00,4.80
2010,11,15,12,01,4.80
2010,11,15,12,02,4.80
2010,11,15,12,03,4.80
2010,11,15,12,04,4.80
2010,11,15,12,05,3.20
2010,11,15,12,06,4.80
2010,11,15,12,07,4.80
2010,11,15,12,08,6.40
2010,11,15,12,09,8.10
2010,11,15,12,10,4.80
2010,11,15,12,11,4.80
2010,11,15,12,12,4.80
2010,11,15,12,13,3.20
2010,11,15,12,14,1.60
2010,11,15,12,16,1.60
2010,11,15,12,18,1.60
2010,11,15,12,19,3.20
2010,11,15,12,20,3.20
2010,11,15,12,21,1.60
2010,11,15,12,23,3.20
2010,11,15,12,24,3.20
2010,11,15,12,25,6.40
2010,11,15,12,26,6.40
2010,11,15,12,27,6.40
2010,11,15,12,28,6.40
2010,11,15,12,29,4.80
2010,11,15,12,30,4.80
2010,11,15,12,31,4.80
2010,11,15,12,32,4.80
2010,11,15,12,33,4.80
2010,11,15,12,34,4.80
2010,11,15,12,35,4.80
2010,11,15,12,36,8.10
2010,11,15,12,37,6.40
2010,11,15,12,38,14.50
2010,11,15,12,39,9.60
2010,11,15,12,40,9.60
2010,11,15,12,41,14.50
2010,11,15,12,42,11.30
2010,11,15,12,43,11.30
2010,11,15,12,44,14.50
2010,11,15,12,45,14.50
2010,11,15,12,46,14.50
2010,11,15,12,47,16.10
2010,11,15,12,48,19.30
2010,11,15,12,49,14.50
2010,11,15,12,50,11.30
2010,11,15,12,51,11.30
2010,11,15,12,52,11.30
2010,11,15,12,53,11.30
2010,11,15,12,54,9.60
2010,11,15,12,55,11.30
2010,11,15,12,56,14.50
2010,11,15,12,57,16.10
2010,11,15,12,58,16.10
2010,11,15,12,59,16.10
2010,11,15,13,00,9.60
2010,11,15,13,01,9.60
2010,11,15,13,02,11.30
2010,11,15,13,03,11.30
2010,11,15,13,04,8.10
2010,11,15,13,05,14.50
2010,11,15,13,06,16.10
2010,11,15,13,07,11.30
2010,11,15,13,08,14.50
2010,11,15,13,09,14.50
2010,11,15,13,10,17.70
2010,11,15,13,11,14.50
2010,11,15,13,12,14.50
2010,11,15,13,13,17.70
2010,11,15,13,14,17.70
2010,11,15,13,15,16.10
2010,11,15,13,16,19.30
2010,11,15,13,17,14.50
2010,11,15,13,18,19.30
2010,11,15,13,19,16.10
2010,11,15,13,20,14.50
2010,11,15,13,21,17.70
2010,11,15,13,22,22.50
2010,11,15,13,23,16.10
2010,11,15,13,24,14.50
2010,11,15,13,25,19.30
2010,11,15,13,26,16.10
2010,11,15,13,27,12.90
2010,11,15,13,28,19.30
2010,11,15,13,29,20.90
2010,11,15,13,30,17.70
2010,11,15,13,31,19.30
2010,11,15,13,32,16.10
2010,11,15,13,33,17.70
2010,11,15,13,34,16.10
2010,11,15,13,35,17.70
2010,11,15,13,36,16.10
2010,11,15,13,37,19.30
2010,11,15,13,38,12.90
2010,11,15,13,39,19.30
2010,11,15,13,40,17.70
2010,11,15,13,41,8.10
2010,11,15,13,42,9.60
2010,11,15,13,43,20.90
2010,11,15,13,44,16.10
2010,11,15,13,45,12.90
2010,11,15,13,46,16.10
2010,11,15,13,47,14.50
2010,11,15,13,48,17.70
2010,11,15,13,49,16.10
2010,11,15,13,50,16.10
2010,11,15,13,51,20.90
2010,11,15,13,52,19.30
2010,11,15,13,53,19.30
2010,11,15,13,54,19.30
2010,11,15,13,55,25.70
2010,11,15,13,56,22.50
2010,11,15,13,57,24.20
2010,11,15,13,58,20.90
2010,11,15,13,59,22.50
2010,11,15,14,00,20.90
2010,11,15,14,01,20.90
2010,11,15,14,02,20.90
2010,11,15,14,03,20.90
2010,11,15,14,04,22.50
2010,11,15,14,05,22.50
2010,11,15,14,06,17.70
2010,11,15,14,07,19.30
2010,11,15,14,08,17.70
2010,11,15,14,09,16.10
2010,11,15,14,10,9.60
2010,11,15,14,11,12.90
2010,11,15,14,12,14.50
2010,11,15,14,13,17.70
2010,11,15,14,14,6.40
2010,11,15,14,15,17.70
2010,11,15,14,16,17.70
2010,11,15,14,17,11.30
2010,11,15,14,18,14.50
2010,11,15,14,19,16.10
2010,11,15,14,20,11.30
2010,11,15,14,21,16.10
2010,11,15,14,22,9.60
2010,11,15,14,23,16.10
2010,11,15,14,24,14.50
2010,11,15,14,25,14.50
2010,11,15,14,26,11.30
2010,11,15,14,27,8.10
2010,11,15,14,28,8.10
2010,11,15,14,29,8.10
2010,11,15,14,30,9.60
2010,11,15,14,31,11.30
2010,11,15,14,32,6.40
2010,11,15,14,33,8.10
2010,11,15,14,34,6.40
2010,11,15,14,35,11.30
2010,11,15,14,36,6.40
2010,11,15,14,37,8.10
2010,11,15,14,38,6.40
2010,11,15,14,39,4.80
2010,11,15,14,40,3.20
2010,11,15,14,41,4.80
2010,11,15,14,42,4.80
2010,11,15,14,43,4.80
2010,11,15,14,45,4.80
2010,11,15,14,46,1.60
2010,11,15,14,47,4.80
2010,11,15,14,48,4.80
2010,11,15,14,49,4.80
2010,11,15,14,50,4.80
2010,11,15,14,51,8.10
2010,11,15,14,52,8.10
2010,11,15,14,53,8.10
2010,11,15,14,54,3.20
2010,11,15,14,56,1.60
2010,11,15,14,57,3.20
2010,11,15,14,58,4.80
2010,11,15,14,59,1.60
2010,11,15,15,00,4.80
2010,11,15,15,01,6.40
2010,11,15,15,02,6.40
2010,11,15,15,03,4.80
2010,11,15,15,04,3.20
2010,11,15,15,05,9.60
2010,11,15,15,06,9.60
2010,11,15,15,07,16.10
2010,11,15,15,08,9.60
2010,11,15,15,09,9.60
2010,11,15,15,10,9.60
2010,11,15,15,11,8.10
2010,11,15,15,12,9.60
2010,11,15,15,13,17.70
2010,11,15,15,14,22.50
2010,11,15,15,15,20.90
2010,11,15,15,16,14.50
2010,11,15,15,17,12.90
2010,11,15,15,18,9.60
2010,11,15,15,19,8.10
2010,11,15,15,20,9.60
2010,11,15,15,21,6.40
2010,11,15,15,22,9.60
2010,11,15,15,23,8.10
2010,11,15,15,24,3.20
2010,11,15,15,25,3.20
2010,11,15,15,26,3.20
2010,11,15,15,27,3.20
2010,11,15,15,28,3.20
2010,11,15,15,29,1.60
2010,11,15,15,30,6.40
2010,11,15,15,31,9.60
2010,11,15,15,32,11.30
2010,11,15,15,33,11.30
2010,11,15,15,34,9.60
2010,11,15,15,35,11.30
2010,11,15,15,36,16.10
2010,11,15,15,37,8.10
2010,11,15,15,38,24.20
2010,11,15,15,39,22.50
2010,11,15,15,40,22.50
2010,11,15,15,41,16.10
2010,11,15,15,42,25.70
2010,11,15,15,43,27.40
2010,11,15,15,44,30.60
2010,11,15,15,45,32.20
2010,11,15,15,46,16.10
2010,11,15,15,47,22.50
2010,11,15,15,48,25.70
2010,11,15,15,49,25.70
2010,11,15,15,50,33.80
2010,11,15,15,51,24.20
2010,11,15,15,52,30.60
2010,11,15,15,53,35.40
2010,11,15,15,54,32.20
2010,11,15,15,55,16.10
2010,11,15,15,56,6.40
2010,11,15,15,57,11.30
2010,11,15,15,58,20.90
2010,11,15,15,59,17.70
2010,11,15,16,00,14.50
2010,11,15,16,01,16.10
2010,11,15,16,02,16.10
2010,11,15,16,03,16.10
2010,11,15,16,04,30.60
2010,11,15,16,05,25.70
2010,11,15,16,06,25.70
2010,11,15,16,07,25.70
2010,11,15,16,08,16.10
2010,11,15,16,09,22.50
2010,11,15,16,10,43.50
2010,11,15,16,11,41.80
2010,11,15,16,12,30.60
2010,11,15,16,13,24.20
2010,11,15,16,14,16.10
2010,11,15,16,15,20.90
2010,11,15,16,16,16.10
2010,11,15,16,17,16.10
2010,11,15,16,18,29.00
2010,11,15,16,19,20.90
2010,11,15,16,20,20.90
2010,11,15,16,21,22.50
2010,11,15,16,22,16.10
2010,11,15,16,23,16.10
2010,11,15,16,24,19.30
2010,11,15,16,25,12.90
2010,11,15,16,26,9.60
2010,11,15,16,27,9.60
2010,11,15,16,28,16.10
2010,11,15,16,29,20.90
2010,11,15,16,30,25.70
2010,11,15,16,31,19.30
2010,11,15,16,32,16.10
2010,11,15,16,33,29.00
2010,11,15,16,34,25.70
2010,11,15,16,35,20.90
2010,11,15,16,36,24.20
2010,11,15,16,37,17.70
2010,11,15,16,38,16.10
2010,11,15,16,39,24.20
2010,11,15,16,40,29.00
2010,11,15,16,41,38.60
2010,11,15,16,42,27.40
2010,11,15,16,43,20.90
2010,11,15,16,44,20.90
2010,11,15,16,45,22.50
2010,11,15,16,46,37.00
2010,11,15,16,47,35.40
2010,11,15,16,48,35.40
2010,11,15,16,49,33.80
2010,11,15,16,50,27.40
2010,11,15,16,51,24.20
2010,11,15,16,52,25.70
2010,11,15,16,53,33.80
2010,11,15,16,54,32.20
2010,11,15,16,55,25.70
2010,11,15,16,56,33.80
2010,11,15,16,57,29.00
2010,11,15,16,58,20.90
2010,11,15,16,59,27.40
2010,11,15,17,00,17.70
2010,11,15,17,01,20.90
2010,11,15,17,02,32.20
2010,11,15,17,03,30.60
2010,11,15,17,04,16.10
2010,11,15,17,05,11.30
2010,11,15,17,06,11.30
2010,11,15,17,07,16.10
2010,11,15,17,08,16.10
2010,11,15,17,09,19.30
2010,11,15,17,10,20.90
2010,11,15,17,11,14.50
2010,11,15,17,12,14.50
2010,11,15,17,13,9.60
2010,11,15,17,14,9.60
2010,11,15,17,15,9.60
2010,11,15,17,16,9.60
2010,11,15,17,17,11.30
2010,11,15,17,18,25.70
2010,11,15,17,19,22.50
2010,11,15,17,20,17.70
2010,11,15,17,21,20.90
2010,11,15,17,22,20.90
2010,11,15,17,23,22.50
2010,11,15,17,24,12.90
2010,11,15,17,25,8.10
2010,11,15,17,26,9.60
2010,11,15,17,27,6.40
2010,11,15,17,28,6.40
2010,11,15,17,29,8.10
2010,11,15,17,30,20.90
2010,11,15,17,31,16.10
2010,11,15,17,32,11.30
2010,11,15,17,33,8.10
2010,11,15,17,34,6.40
2010,11,15,17,35,4.80
2010,11,15,17,36,8.10
2010,11,15,17,37,6.40
2010,11,15,17,38,4.80
2010,11,15,17,39,4.80
2010,11,15,17,40,4.80
2010,11,15,17,41,4.80
2010,11,15,17,42,6.40
2010,11,15,17,43,3.20
2010,11,15,17,44,3.20
2010,11,15,17,45,6.40
2010,11,15,17,46,9.60
2010,11,15,17,47,4.80
2010,11,15,17,48,6.40
2010,11,15,17,49,4.80
2010,11,15,17,50,4.80
2010,11,15,17,51,4.80
2010,11,15,17,52,4.80
2010,11,15,17,53,4.80
2010,11,15,17,54,8.10
2010,11,15,17,55,6.40
2010,11,15,17,56,4.80
2010,11,15,17,57,6.40
2010,11,15,17,58,6.40
2010,11,15,17,59,4.80
2010,11,15,18,00,3.20
2010,11,15,18,01,3.20
2010,11,15,18,02,8.10
2010,11,15,18,03,6.40
2010,11,15,18,04,6.40
2010,11,15,18,05,4.80
2010,11,15,18,06,9.60
2010,11,15,18,07,6.40
2010,11,15,18,08,6.40
2010,11,15,18,09,4.80
2010,11,15,18,10,8.10
2010,11,15,18,11,9.60
2010,11,15,18,12,11.30
2010,11,15,18,13,14.50
2010,11,15,18,14,8.10
2010,11,15,18,15,8.10
2010,11,15,18,16,6.40
2010,11,15,18,17,6.40
2010,11,15,18,18,6.40
2010,11,15,18,19,1.60
2010,11,15,18,20,4.80
2010,11,15,18,21,3.20
2010,11,15,18,22,4.80
2010,11,15,18,23,4.80
2010,11,15,18,24,3.20
2010,11,15,18,25,4.80
2010,11,15,18,26,4.80
2010,11,15,18,27,3.20
2010,11,15,18,28,6.40
2010,11,15,18,29,3.20
2010,11,15,18,30,4.80
2010,11,15,18,31,4.80
2010,11,15,18,32,8.10
2010,11,15,18,33,14.50
2010,11,15,18,34,11.30
2010,11,15,18,35,8.10
2010,11,15,18,36,9.60
2010,11,15,18,37,16.10
2010,11,15,18,38,17.70
2010,11,15,18,39,6.40
2010,11,15,18,40,4.80
2010,11,15,18,41,4.80
2010,11,15,18,42,4.80
2010,11,15,18,43,4.80
2010,11,15,18,44,6.40
2010,11,15,18,45,16.10
2010,11,15,18,46,3.20
2010,11,15,18,47,6.40
2010,11,15,18,48,3.20
2010,11,15,18,49,1.60
2010,11,15,18,50,3.20
2010,11,15,18,51,4.80
2010,11,15,18,52,3.20
2010,11,15,18,53,3.20
2010,11,15,18,55,3.20
2010,11,15,18,56,8.10
2010,11,15,18,57,11.30
2010,11,15,18,58,9.60
2010,11,15,18,59,3.20
2010,11,15,19,00,3.20
2010,11,15,19,01,9.60
2010,11,15,19,02,6.40
2010,11,15,19,03,4.80
2010,11,15,19,04,9.60
2010,11,15,19,05,16.10
2010,11,15,19,06,11.30
2010,11,15,19,07,4.80
2010,11,15,19,08,9.60
2010,11,15,19,09,8.10
2010,11,15,19,10,9.60
2010,11,15,19,11,11.30
2010,11,15,19,12,14.50
2010,11,15,19,13,8.10
2010,11,15,19,14,8.10
2010,11,15,19,15,6.40
2010,11,15,19,16,4.80
2010,11,15,19,17,14.50
2010,11,15,19,18,17.70
2010,11,15,19,19,14.50
2010,11,15,19,20,8.10
2010,11,15,19,21,4.80
2010,11,15,19,22,17.70
2010,11,15,19,23,30.60
2010,11,15,19,24,22.50
2010,11,15,19,25,24.20
2010,11,15,19,26,35.40
2010,11,15,19,27,33.80
2010,11,15,19,28,38.60
2010,11,15,19,29,32.20
2010,11,15,19,30,29.00
2010,11,15,19,31,22.50
2010,11,15,19,32,35.40
2010,11,15,19,33,32.20
2010,11,15,19,34,22.50
2010,11,15,19,35,32.20
2010,11,15,19,36,33.80
2010,11,15,19,37,38.60
2010,11,15,19,38,35.40
2010,11,15,19,39,43.50
2010,11,15,19,40,40.20
2010,11,15,19,41,49.90
2010,11,15,19,42,45.10
2010,11,15,19,43,49.90
2010,11,15,19,44,30.60
2010,11,15,19,45,22.50
2010,11,15,19,46,19.30
2010,11,15,19,47,38.60
2010,11,15,19,48,38.60
2010,11,15,19,49,35.40
2010,11,15,19,50,37.00
2010,11,15,19,51,24.20
2010,11,15,19,52,19.30
2010,11,15,19,53,25.70
2010,11,15,19,54,29.00
2010,11,15,19,55,37.00
2010,11,15,19,56,33.80
2010,11,15,19,57,35.40
2010,11,15,19,58,30.60
2010,11,15,19,59,49.90
2010,11,15,20,00,43.50
2010,11,15,20,01,51.50
2010,11,15,20,02,43.50
2010,11,15,20,03,49.90
2010,11,15,20,04,54.70
2010,11,15,20,05,24.20
2010,11,15,20,06,45.10
2010,11,15,20,07,43.50
2010,11,15,20,08,40.20
2010,11,15,20,09,37.00
2010,11,15,20,10,43.50
2010,11,15,20,11,29.00
2010,11,15,20,12,45.10
2010,11,15,20,13,53.10
2010,11,15,20,14,48.30
2010,11,15,20,15,45.10
2010,11,15,20,16,53.10
2010,11,15,20,17,41.80
2010,11,15,20,18,41.80
2010,11,15,20,19,59.50
2010,11,15,20,20,37.00
2010,11,15,20,21,30.60
2010,11,15,20,22,37.00
2010,11,15,20,23,43.50
2010,11,15,20,24,41.80
2010,11,15,20,25,45.10
2010,11,15,20,26,29.00
2010,11,15,20,27,27.40
2010,11,15,20,28,27.40
2010,11,15,20,29,38.60
2010,11,15,20,30,32.20
2010,11,15,20,31,35.40
2010,11,15,20,32,32.20
2010,11,15,20,33,38.60
2010,11,15,20,34,45.10
2010,11,15,20,35,41.80
2010,11,15,20,36,48.30
2010,11,15,20,37,41.80
2010,11,15,20,38,37.00
2010,11,15,20,39,41.80
2010,11,15,20,40,54.70
2010,11,15,20,41,32.20
2010,11,15,20,42,53.10
2010,11,15,20,43,43.50
2010,11,15,20,44,32.20
2010,11,15,20,45,45.10
2010,11,15,20,46,43.50
2010,11,15,20,47,46.70
2010,11,15,20,48,30.60
2010,11,15,20,49,30.60
2010,11,15,20,50,20.90
2010,11,15,20,51,30.60
2010,11,15,20,52,49.90
2010,11,15,20,53,40.20
2010,11,15,20,54,25.70
2010,11,15,20,55,22.50
2010,11,15,20,56,29.00
2010,11,15,20,57,41.80
2010,11,15,20,58,48.30
2010,11,15,20,59,48.30
2010,11,15,21,00,46.70
2010,11,15,21,01,46.70
2010,11,15,21,02,74.00
2010,11,15,21,03,59.50
2010,11,15,21,04,49.90
2010,11,15,21,05,45.10
2010,11,15,21,06,53.10
2010,11,15,21,07,53.10
2010,11,15,21,08,61.20
2010,11,15,21,09,51.50
2010,11,15,21,10,49.90
2010,11,15,21,11,45.10
2010,11,15,21,12,49.90
2010,11,15,21,13,72.40
2010,11,15,21,14,51.50
2010,11,15,21,15,59.50
2010,11,15,21,16,49.90
2010,11,15,21,17,53.10
2010,11,15,21,18,38.60
2010,11,15,21,19,51.50
2010,11,15,21,20,41.80
2010,11,15,21,21,49.90
2010,11,15,21,22,56.30
2010,11,15,21,23,45.10
2010,11,15,21,24,53.10
2010,11,15,21,25,40.20
2010,11,15,21,26,48.30
2010,11,15,21,27,43.50
2010,11,15,21,28,37.00
2010,11,15,21,29,32.20
2010,11,15,21,30,41.80
2010,11,15,21,31,48.30
2010,11,15,21,32,51.50
2010,11,15,21,33,45.10
2010,11,15,21,34,37.00
2010,11,15,21,35,64.40
2010,11,15,21,36,62.70
2010,11,15,21,37,53.10
2010,11,15,21,38,64.40
2010,11,15,21,39,51.50
2010,11,15,21,40,51.50
2010,11,15,21,41,37.00
2010,11,15,21,42,33.80
2010,11,15,21,43,54.70
2010,11,15,21,44,41.80
2010,11,15,21,45,41.80
2010,11,15,21,46,32.20
2010,11,15,21,47,41.80
2010,11,15,21,48,41.80
2010,11,15,21,49,46.70
2010,11,15,21,50,37.00
2010,11,15,21,51,38.60
2010,11,15,21,52,41.80
2010,11,15,21,53,37.00
2010,11,15,21,54,37.00
2010,11,15,21,55,43.50
2010,11,15,21,56,30.60
2010,11,15,21,57,27.40
2010,11,15,21,58,17.70
2010,11,15,21,59,22.50
2010,11,15,22,00,25.70
2010,11,15,22,01,32.20
2010,11,15,22,02,22.50
2010,11,15,22,03,20.90
2010,11,15,22,04,17.70
2010,11,15,22,05,29.00
2010,11,15,22,06,16.10
2010,11,15,22,07,32.20
2010,11,15,22,08,25.70
2010,11,15,22,09,32.20
2010,11,15,22,10,35.40
2010,11,15,22,11,22.50
2010,11,15,22,12,24.20
2010,11,15,22,13,24.20
2010,11,15,22,14,24.20
2010,11,15,22,15,17.70
2010,11,15,22,16,19.30
2010,11,15,22,17,11.30
2010,11,15,22,18,19.30
2010,11,15,22,19,19.30
2010,11,15,22,20,11.30
2010,11,15,22,21,19.30
2010,11,15,22,22,22.50
2010,11,15,22,23,20.90
2010,11,15,22,24,19.30
2010,11,15,22,25,16.10
2010,11,15,22,26,19.30
2010,11,15,22,27,16.10
2010,11,15,22,28,11.30
2010,11,15,22,29,8.10
2010,11,15,22,30,19.30
2010,11,15,22,31,17.70
2010,11,15,22,32,20.90
2010,11,15,22,33,29.00
2010,11,15,22,34,22.50
2010,11,15,22,35,17.70
2010,11,15,22,36,32.20
2010,11,15,22,37,20.90
2010,11,15,22,38,22.50
2010,11,15,22,39,25.70
2010,11,15,22,40,17.70
2010,11,15,22,41,12.90
2010,11,15,22,42,16.10
2010,11,15,22,43,9.60
2010,11,15,22,44,17.70
2010,11,15,22,45,11.30
2010,11,15,22,46,9.60
2010,11,15,22,47,6.40
2010,11,15,22,48,6.40
2010,11,15,22,49,6.40
2010,11,15,22,50,9.60
2010,11,15,22,51,8.10
2010,11,15,22,52,6.40
2010,11,15,22,53,4.80
2010,11,15,22,54,9.60
2010,11,15,22,55,16.10
2010,11,15,22,56,16.10
2010,11,15,22,57,11.30
2010,11,15,22,58,19.30
2010,11,15,22,59,16.10
2010,11,15,23,00,17.70
2010,11,15,23,01,19.30
2010,11,15,23,02,14.50
2010,11,15,23,03,11.30
2010,11,15,23,04,11.30
2010,11,15,23,05,22.50
2010,11,15,23,06,19.30
2010,11,15,23,07,14.50
2010,11,15,23,08,14.50
2010,11,15,23,09,16.10
2010,11,15,23,10,17.70
2010,11,15,23,11,16.10
2010,11,15,23,12,11.30
2010,11,15,23,13,14.50
2010,11,15,23,14,9.60
2010,11,15,23,15,22.50
2010,11,15,23,16,27.40
2010,11,15,23,17,25.70
2010,11,15,23,18,22.50
2010,11,15,23,19,22.50
2010,11,15,23,20,17.70
2010,11,15,23,21,24.20
2010,11,15,23,22,17.70
2010,11,15,23,23,9.60
2010,11,15,23,24,19.30
2010,11,15,23,25,11.30
2010,11,15,23,26,8.10
2010,11,15,23,27,11.30
2010,11,15,23,28,9.60
2010,11,15,23,29,14.50
2010,11,15,23,30,16.10
2010,11,15,23,31,9.60
2010,11,15,23,32,16.10
2010,11,15,23,33,12.90
2010,11,15,23,34,22.50
2010,11,15,23,35,14.50
2010,11,15,23,36,9.60
2010,11,15,23,37,11.30
2010,11,15,23,38,6.40
2010,11,15,23,39,9.60
2010,11,15,23,40,11.30
2010,11,15,23,41,11.30
2010,11,15,23,42,20.90
2010,11,15,23,43,17.70
2010,11,15,23,44,17.70
2010,11,15,23,45,17.70
2010,11,15,23,46,20.90
2010,11,15,23,47,22.50
2010,11,15,23,48,17.70
2010,11,15,23,49,17.70
2010,11,15,23,50,29.00
2010,11,15,23,51,20.90
2010,11,15,23,52,20.90
2010,11,15,23,53,17.70
2010,11,15,23,54,29.00
2010,11,15,23,55,27.40
2010,11,15,23,56,27.40
2010,11,15,23,57,30.60
2010,11,15,23,58,38.60
2010,11,15,23,59,37.00
